Find Starlink 32704

NORAD ID: 62826 Int'l Des: 2025-018 Owner: SPXS Country: US Constellation: starlink operational
LEOCIRCULAR

リアルタイム位置

3D地球を読み込み中...

Starlink 32704について

説明を読み込み中...

次回通過

Passes for default location (London). Set your location on the main map for personalized predictions.

高度履歴

Loading altitude history...

軌道要素

1 62826U 25018W 26125.05372140 .00078057 00000-0 23257-2 0 9996
2 62826 53.1585 47.4068 0002568 156.8464 203.2654 15.34012777 71802
Epoch: May 5, 2026 • Age: 10 hours

現在のステータス

高度 464.9 km
速度 7.64 km/s
衛星直下点 -9.70°S, 163.18°W
打ち上げ日 Jan 24, 2025
運用期間 1.2 years
タイプ internet

技術仕様

分類 Payload
質量 730.00 kg
乾燥質量 700.00 kg
総質量 730.00 kg
長さ 0.30 m
直径 4.10 m
スパン 29.00 m
形状 Box + pan
製造者 SPXS
バスタイプ Starlink V2M
フェーズステータス In Orbit
所有者/国 SPXS/US

Most Searched